Location: Newark
(51.2625°N, 13.3939°E)
Time: 07:55:30
(UTC+00:00)

Transit 2A Rocket - Pass Details

Date: 25 January 2021
Orbit: 594 x 909 km, 66.7° (Epoch: 24 February)

Event Time Altitude Azimuth Distance (km) Brightness Sun altitude
Rises 17:10:35 0° 321° (NW) 3,015 8.4 -13.3°
Reaches altitude 10° 17:13:35 10° 340° (NNW) 2,047 7.3 -13.7°
Maximum altitude 17:16:49 19° 25° (NNE) 1,509 6.2 -14.2°
Enters shadow 17:17:47 18° 42° (NE) 1,550 6.1 -14.4°
